Terminal Aerodrome Forecast
Issued by NWS

Home | Current Version | Previous Version | Graphics & Text | Print | Product List | Glossary Off
Versions: 1 2 3 4 5 6 7 8 9 10 11 12 13 14 15 16

000
FTUS43 KDDC 250359 AAA
TAFGCK
TAF AMD
KGCK 250359Z 2504/2524 03015KT P6SM VCTS OVC012CB
      TEMPO 2504/2507 4SM TS OVC030CB
     FM250800 01006KT P6SM -SHRA VCTS BKN060CB
      TEMPO 2508/2511 4SM -TSRA OVC015CB
     FM251700 04009KT P6SM BKN060=

USA.gov is the U.S. government's official web portal to all federal, state and local government web resources and services.